TimePDT,TemperatureF,Dew PointF,Humidity,Sea Level PressureIn,VisibilityMPH,Wind Direction,Wind SpeedMPH,Gust SpeedMPH,PrecipitationIn,Events,Conditions,WindDirDegrees,DateUTC
12:53 AM,60.1,25.0,26,29.93,10.0,Calm,Calm,-,N/A,,Clear,0,2013-10-24 07:53:00
1:53 AM,62.1,25.0,24,29.93,10.0,Calm,Calm,-,N/A,,Clear,0,2013-10-24 08:53:00
2:53 AM,63.0,23.0,22,29.93,10.0,Variable,3.5,-,N/A,,Clear,0,2013-10-24 09:53:00
3:53 AM,61.0,24.1,24,29.94,10.0,NW,4.6,-,N/A,,Clear,320,2013-10-24 10:53:00
4:53 AM,59.0,21.9,24,29.94,10.0,NW,6.9,-,N/A,,Clear,310,2013-10-24 11:53:00
5:53 AM,60.1,23.0,24,29.95,10.0,Calm,Calm,-,N/A,,Clear,0,2013-10-24 12:53:00
6:53 AM,57.0,26.1,30,29.96,10.0,WNW,3.5,-,N/A,,Clear,290,2013-10-24 13:53:00
7:53 AM,61.0,23.0,23,29.98,10.0,West,3.5,-,N/A,,Clear,280,2013-10-24 14:53:00
8:53 AM,66.0,21.9,19,30.00,10.0,NW,3.5,-,N/A,,Clear,320,2013-10-24 15:53:00
9:53 AM,66.9,21.9,18,30.01,10.0,Calm,Calm,-,N/A,,Clear,0,2013-10-24 16:53:00
10:53 AM,73.9,21.0,14,30.00,10.0,NNW,5.8,-,N/A,,Clear,330,2013-10-24 17:53:00
11:53 AM,77.0,21.9,13,29.98,10.0,NNW,6.9,-,N/A,,Clear,330,2013-10-24 18:53:00
12:53 PM,80.1,21.0,11,29.96,10.0,Calm,Calm,-,N/A,,Clear,0,2013-10-24 19:53:00
1:53 PM,81.0,21.0,11,29.93,10.0,Calm,Calm,-,N/A,,Clear,0,2013-10-24 20:53:00
2:53 PM,82.0,19.9,10,29.93,10.0,Calm,Calm,-,N/A,,Clear,0,2013-10-24 21:53:00
3:53 PM,82.0,19.9,10,29.92,10.0,SSE,3.5,-,N/A,,Clear,160,2013-10-24 22:53:00
4:53 PM,81.0,21.0,11,29.93,10.0,SW,3.5,-,N/A,,Clear,220,2013-10-24 23:53:00
5:53 PM,79.0,21.9,12,29.94,10.0,South,3.5,-,N/A,,Clear,170,2013-10-25 00:53:00
6:53 PM,73.9,27.0,18,29.96,10.0,Calm,Calm,-,N/A,,Clear,0,2013-10-25 01:53:00
7:53 PM,68.0,28.9,23,29.98,10.0,NNW,3.5,-,N/A,,Clear,340,2013-10-25 02:53:00
8:53 PM,66.0,28.0,24,30.01,10.0,North,5.8,-,N/A,,Clear,360,2013-10-25 03:53:00
9:53 PM,66.0,25.0,21,30.03,10.0,NW,5.8,-,N/A,,Clear,310,2013-10-25 04:53:00
10:53 PM,66.0,28.9,25,30.03,10.0,Calm,Calm,-,N/A,,Clear,0,2013-10-25 05:53:00
11:53 PM,64.9,32.0,29,30.03,10.0,West,4.6,-,N/A,,Clear,260,2013-10-25 06:53:00